EW4092 Weather Reports


Display with metric or nautical units.
time (UTC)temp
F
wind
direction
speed
MPH
gust
MPH
rain 1hr
in
rain 24hr
in
rain mn
in
humidity
%
barometer
mb
20260831090028 55 102 0.0 3.0 0.00 0.00 0.00 71 1015.5
20260831084528 56 94 0.0 1.0 0.00 0.00 0.00 72 1015.4
20260831083028 55 94 0.0 2.0 0.00 0.00 0.00 73 1015.4
20260831081525 55 94 0.0 2.0 0.00 0.00 0.00 73 1015.5
20260831080028 55 59 0.0 1.0 0.00 0.00 0.00 74 1015.5
20260831074525 55 59 0.0 1.0 0.00 0.00 0.00 73 1015.5
20260831073021 55 60 0.0 0.0 0.00 0.00 0.00 73 1015.5
20260831071517 56 60 0.0 0.0 0.00 0.00 0.00 72 1015.4
20260831070017 57 59 0.0 2.0 0.00 0.00 0.00 70 1015.5
20260831064513 57 61 0.0 0.0 0.00 0.00 0.00 69 1015.5
20260831063016 57 58 0.0 1.0 0.00 0.00 0.00 66 1015.6
20260831061513 59 90 0.0 1.0 0.00 0.00 0.00 66 1015.7
20260831060012 59 92 0.0 0.0 0.00 0.00 0.00 65 1015.6
20260831054512 59 92 0.0 1.0 0.00 0.00 0.00 65 1015.6
20260831053012 60 90 0.0 0.0 0.00 0.00 0.00 64 1015.6
20260831051518 60 79 0.0 1.0 0.00 0.00 0.00 63 1015.6
20260831050010 62 79 0.0 1.0 0.00 0.00 0.00 59 1015.5
20260831044510 62 132 0.0 1.0 0.00 0.00 0.00 58 1015.5
20260831043010 63 134 0.0 1.0 0.00 0.00 0.00 55 1015.5
20260831041509 64 255 0.0 1.0 0.00 0.00 0.00 52 1015.4
20260831040008 65 255 0.0 0.0 0.00 0.00 0.00 50 1015.3
20260831034508 65 169 0.0 2.0 0.00 0.00 0.00 53 1015.1
20260831033015 66 79 0.0 0.0 0.00 0.00 0.00 47 1014.8
20260831031512 68 79 0.0 0.0 0.00 0.00 0.00 44 1014.7
20260831030005 69 79 0.0 0.0 0.00 0.00 0.00 43 1014.6
20260831024505 72 79 0.0 0.0 0.00 0.00 0.00 38 1014.5
20260831023006 75 79 0.0 1.0 0.00 0.00 0.00 33 1014.5
20260831021507 77 79 0.0 1.0 0.00 0.00 0.00 33 1014.5
20260831020004 75 335 0.0 1.0 0.00 0.00 0.00 34 1014.5
20260831014502 74 335 0.0 0.0 0.00 0.00 0.00 35 1014.4
20260831013002 74 335 0.0 1.0 0.00 0.00 0.00 34 1014.5
20260831011601 75 63 0.0 2.0 0.00 0.00 0.00 32 1014.6
20260831010100 77 335 0.0 4.0 0.00 0.00 0.00 30 1014.6
20260831004600 78 43 0.0 3.0 0.00 0.00 0.00 28 1014.7
20260831003058 78 46 0.0 4.0 0.00 0.00 0.00 28 1014.8
20260831001556 78 102 1.0 5.0 0.00 0.00 0.00 28 1014.8
20260831000054 77 215 0.0 4.0 0.00 0.00 0.00 29 1014.9
20260830234553 77 274 1.0 4.0 0.00 0.00 0.00 31 1014.9
20260830233053 76 281 2.0 4.0 0.00 0.00 0.00 31 1015.0
20260830231551 77 98 0.0 3.0 0.00 0.00 0.00 28 1015.3
20260830230048 76 318 1.0 5.0 0.00 0.00 0.00 30 1015.4
20260830224546 76 284 4.0 7.0 0.00 0.00 0.00 30 1015.7
20260830223041 75 246 2.0 4.0 0.00 0.00 0.00 33 1015.9
20260830221542 75 137 0.0 4.0 0.00 0.00 0.00 32 1016.0
20260830220037 75 98 1.0 6.0 0.00 0.00 0.00 32 1016.2
20260830214534 73 183 0.0 6.0 0.00 0.00 0.00 33 1016.5
20260830213036 73 68 3.0 9.0 0.00 0.00 0.00 34 1016.6
20260830211529 73 19 1.0 6.0 0.00 0.00 0.00 36 1016.7
20260830210028 72 81 5.0 11.0 0.00 0.00 0.00 35 1016.7
20260830204526 72 284 3.0 7.0 0.00 0.00 0.00 35 1016.8
20260830203022 71 44 1.0 4.0 0.00 0.00 0.00 35 1017.0
20260830201521 70 40 1.0 7.0 0.00 0.00 0.00 36 1017.1
20260830200019 71 88 3.0 8.0 0.00 0.00 0.00 38 1017.1
20260830194515 69 329 0.0 6.0 0.00 0.00 0.00 38 1017.2
20260830193014 69 57 2.0 6.0 0.00 0.00 0.00 38 1017.4
20260830191515 69 328 2.0 5.0 0.00 0.00 0.00 39 1017.5
20260830190013 69 335 1.0 5.0 0.00 0.00 0.00 41 1017.7
20260830184509 68 212 2.0 6.0 0.00 0.00 0.00 40 1017.8
20260830183007 68 165 0.0 5.0 0.00 0.00 0.00 41 1017.9
20260830181506 67 305 1.0 4.0 0.00 0.00 0.00 44 1018.0
20260830180002 66 118 1.0 4.0 0.00 0.00 0.00 43 1018.0
20260830174501 66 297 0.0 4.0 0.00 0.00 0.00 45 1018.0
20260830173117 65 314 1.0 7.0 0.00 0.00 0.00 45 1018.1
20260830171605 64 49 2.0 5.0 0.00 0.00 0.00 45 1018.2
20260830170054 64 319 2.0 3.0 0.00 0.00 0.00 47 1018.3
20260830164551 63 64 2.0 5.0 0.00 0.00 0.00 49 1018.4
20260830163150 62 93 0.0 3.0 0.00 0.00 0.00 50 1018.6
20260830161601 61 346 0.0 2.0 0.00 0.00 0.00 53 1018.6
20260830160042 59 77 0.0 3.0 0.00 0.00 0.00 57 1018.7
20260830154540 58 110 0.0 3.0 0.00 0.00 0.00 58 1018.8
20260830153040 56 109 0.0 2.0 0.00 0.00 0.00 60 1018.9
20260830151535 54 117 1.0 3.0 0.00 0.00 0.00 63 1019.0
20260830150034 53 64 1.0 2.0 0.00 0.00 0.00 64 1019.0
20260830144632 52 109 0.0 2.0 0.00 0.00 0.00 67 1018.9
20260830143032 49 109 0.0 2.0 0.00 0.00 0.00 73 1018.9
20260830141531 47 71 0.0 1.0 0.00 0.00 0.00 77 1018.8
20260830140030 44 70 0.0 2.0 0.00 0.00 0.00 82 1018.7
20260830134528 43 71 0.0 1.0 0.00 0.00 0.00 84 1018.6
20260830133031 42 67 0.0 3.0 0.00 0.00 0.00 83 1018.6
20260830131523 43 87 0.0 1.0 0.00 0.00 0.00 84 1018.4
20260830130121 43 88 0.0 0.0 0.00 0.00 0.00 85 1018.2
20260830124531 43 87 0.0 1.0 0.00 0.00 0.00 83 1018.2
20260830123019 43 88 0.0 0.0 0.00 0.00 0.00 84 1018.1
20260830121517 44 88 0.0 0.0 0.00 0.00 0.00 83 1018.2
20260830120014 44 87 0.0 0.0 0.00 0.00 0.00 81 1018.1
20260830114511 45 88 0.0 0.0 0.00 0.00 0.00 80 1018.0
20260830113009 46 88 0.0 1.0 0.00 0.00 0.00 78 1017.9
20260830111607 47 87 0.0 0.0 0.00 0.00 0.00 78 1017.8
20260830110006 46 88 0.0 2.0 0.00 0.00 0.00 78 1017.7
20260830104503 47 41 0.0 0.0 0.00 0.00 0.00 77 1017.8
20260830103002 47 41 0.0 1.0 0.00 0.00 0.00 77 1017.7
20260830101559 48 32 0.0 1.0 0.00 0.00 0.00 76 1017.7
20260830100057 48 32 0.0 1.0 0.00 0.00 0.00 76 1017.7
20260830094555 48 32 0.0 1.0 0.00 0.00 0.00 75 1017.7
20260830093051 49 82 0.0 1.0 0.00 0.00 0.00 73 1017.5
20260830091549 51 82 0.0 1.0 0.00 0.00 0.00 72 1017.6